Location: Brusselsch Zeekanaal
(50.8667°N, 4.3667°E)
Time: 01:01:37
(UTC+00:00)

NOSS 3-1 (A) - Visible Passes

Search period start: 13 February 2026 00:00
Search period end: 23 February 2026 00:00
Orbit: 613 x 1593 km, 63.4° (Epoch: 10 January)

Date Brightness Start Highest point End Pass type
(mag) Time Alt. Az. Time Alt. Az. Time Alt. Az.
13 Feb 5.7 04:35:21 10° SE 04:37:48 14° ESE 04:40:27 10° ENE visible
14 Feb 3.8 05:37:15 10° SSW 05:41:48 52° ESE 05:47:17 10° NE visible
15 Feb 4.7 04:52:22 10° S 04:56:28 31° ESE 05:01:18 10° NE visible
16 Feb 5.4 04:08:03 10° SSE 04:11:19 19° ESE 04:14:57 10° ENE visible
16 Feb 3.0 05:56:19 10° SW 06:01:05 80° NW 06:07:02 10° NE visible
17 Feb 5.8 03:25:37 10° ESE 03:26:17 10° ESE 03:26:59 10° E visible
17 Feb 3.3 05:10:51 10° SSW 05:15:30 67° SE 05:21:14 10° NE visible
18 Feb 4.1 04:26:57 18° S 04:30:06 41° ESE 04:35:19 10° NE visible
18 Feb 3.5 06:15:58 10° WSW 06:20:44 47° NNW 06:26:41 10° NE visible
19 Feb 4.7 03:43:09 20° SE 03:44:51 25° ESE 03:49:11 10° ENE visible
19 Feb 3.1 05:30:34 13° WSW 05:34:55 66° NW 05:40:54 10° NE visible
20 Feb 5.4 02:59:16 14° ESE 02:59:46 14° ESE 03:02:27 10° ENE visible
20 Feb 3.0 04:46:39 28° SW 04:49:14 84° SE 04:55:07 10° NE visible
21 Feb 3.5 04:02:41 44° SSE 04:03:45 53° SE 04:09:16 10° NE visible
21 Feb 3.7 05:50:04 11° W 05:54:41 41° NNW 06:00:35 10° NE visible
22 Feb 4.3 03:18:38 32° ESE 03:18:38 32° ESE 03:23:16 10° NE visible
22 Feb 3.3 05:06:01 25° WSW 05:08:47 55° NW 05:14:46 10° NE visible
